Santa Rosa, CA

6:31 PM PDT on March 26, 2017 (GMT -0700)
Sonoma County

Weather History for KSTS - June, 2012

Change the Weather History Date:

Thursday, June 28, 2012

  Actual Average Record
Temperature  
Mean Temperature 65 °F 67 °F  
Max Temperature 83 °F 83 °F 98 °F (2013)
Min Temperature 47 °F 51 °F 47 °F (2012)
Degree Days  
Heating Degree Days 0    
Month to date heating degree days 64  
Since 1 June heating degree days 64  
Since 1 July heating degree days 2926  
Cooling Degree Days 0    
Month to date cooling degree days 72  
Year to date cooling degree days 101  
Since 1 June cooling degree days 72  
Growing Degree Days 15 (Base 50)    
Moisture  
Dew Point 49 °F    
Average Humidity 62    
Maximum Humidity 93    
Minimum Humidity 31    
Precipitation  
Precipitation 0.00 in 0.01 in 0.63 in (2011)
Month to date precipitation 0.02 0.23  
Year to date precipitation 18.79 22.08  
Since 1 July precipitation 23.25  
Sea Level Pressure  
Sea Level Pressure 29.98 in    
Wind  
Wind Speed 5 mph (South)    
Max Wind Speed 14 mph    
Max Gust Speed 18 mph    
Visibility 10 miles    
Events      
T = Trace of Precipitation, MM = Missing Value Source: NWS Daily Summary

Daily Weather History Graph

Daily Weather History Graph

Search for Another Location

Airport or City:

Trip Planner

Search our weather history database for the weather conditions in past years. The results will help you decide how hot, cold, wet, or windy it might be!

Date:

Astronomy

Jun. 28, 2012 Rise Set
Actual Time 5:49 AM PDT 8:39 PM PDT
Civil Twilight 5:17 AM PDT 9:11 PM PDT
Nautical Twilight 4:38 AM PDT 9:50 PM PDT
Astronomical Twilight 3:52 AM PDT 10:36 PM PDT
Moon 3:22 PM PDT (6/28) 1:23 AM PDT (6/28)
Length of Visible Light 15h 53m
Length of Day
14h 49m
Waxing Gibbous, 68% of the Moon is Illuminated
Jun 28
Waxing Gibbous
Jul 3
Full
Jul 10
Last Quarter
Jul 18
New
Jul 26
First Quarter

Hourly Weather History & Observations

Time (PDT) Temp. Dew Point Humidity Pressure Visibility Wind Dir Wind Speed Gust Speed Precip Events Conditions
12:53 AM 53.1 °F 48.9 °F 86% 29.91 in 10.0 mi Calm Calm - N/A   Clear
1:53 AM 53.1 °F 48.9 °F 86% 29.92 in 10.0 mi Calm Calm - N/A   Clear
2:53 AM 50.0 °F 46.9 °F 89% 29.92 in 10.0 mi Calm Calm - N/A   Clear
3:53 AM 51.1 °F 46.9 °F 86% 29.93 in 10.0 mi Calm Calm - N/A   Clear
4:53 AM 50.0 °F 46.0 °F 86% 29.94 in 10.0 mi Calm Calm - N/A   Clear
5:53 AM 48.0 °F 46.0 °F 93% 29.95 in 10.0 mi Calm Calm - N/A   Clear
6:53 AM 51.1 °F 48.0 °F 89% 29.96 in 10.0 mi Calm Calm - N/A   Clear
7:53 AM 55.0 °F 48.9 °F 80% 29.99 in 10.0 mi SSW 3.5 mph - N/A   Clear
8:53 AM 61.0 °F 48.9 °F 64% 30.00 in 10.0 mi SSE 4.6 mph - N/A   Clear
9:53 AM 66.0 °F 48.9 °F 54% 30.00 in 10.0 mi South 3.5 mph - N/A   Clear
10:53 AM 72.0 °F 48.0 °F 43% 30.01 in 10.0 mi Calm Calm - N/A   Clear
11:53 AM 77.0 °F 48.9 °F 37% 30.00 in 10.0 mi South 9.2 mph - N/A   Clear
12:53 PM 80.1 °F 51.1 °F 36% 30.00 in 10.0 mi SSE 9.2 mph - N/A   Clear
1:53 PM 82.0 °F 48.0 °F 30% 29.99 in 10.0 mi SW 10.4 mph - N/A   Clear
2:53 PM 82.0 °F 48.9 °F 31% 29.99 in 10.0 mi SW 9.2 mph - N/A   Clear
3:53 PM 82.0 °F 50.0 °F 33% 29.98 in 10.0 mi SSW 6.9 mph 17.3 mph N/A   Clear
4:53 PM 80.1 °F 50.0 °F 35% 29.97 in 10.0 mi WSW 12.7 mph - N/A   Clear
5:53 PM 78.1 °F 51.1 °F 39% 29.97 in 10.0 mi WSW 9.2 mph - 0.00 in   Clear
6:53 PM 73.9 °F 52.0 °F 46% 29.99 in 10.0 mi South 9.2 mph - N/A   Clear
7:53 PM 66.9 °F 52.0 °F 59% 29.99 in 10.0 mi ESE 10.4 mph - N/A   Clear
8:53 PM 60.1 °F 52.0 °F 75% 30.00 in 10.0 mi SE 9.2 mph - N/A   Clear
9:53 PM 57.9 °F 52.0 °F 81% 30.02 in 10.0 mi SE 5.8 mph - N/A   Clear
10:53 PM 57.0 °F 52.0 °F 83% 30.03 in 10.0 mi SE 5.8 mph - N/A   Clear
11:53 PM 55.0 °F 51.1 °F 86% 30.03 in 10.0 mi Calm Calm - N/A   Clear